Date String (YYYY-MM-DD hh:mm:ss) UTC,Instrument flags,absolute air pressure of the measurement (hPa),sample flow rate (lpm),inlet stack bypass flow (lpm),air temperature of the measurement (°C),ambient temperature measured by the external sensor (°C),aerosol sample conditioner tube jacket temperature (°C),OPC LED temperature (°C),internal box temperature (°C),relative humidity of the measurement (%),span deviation,mass concentration of particles derived from Lorenz-Mie calculation of OPC scattering (μg/m³),mass concentration of particles derived from Lorenz-Mie calculation of OPC scattering (μg/m³),mass concentration of particles derived from Lorenz-Mie calculation of OPC scattering (μg/m³)
DateTimeUTC,F1_M11,P_M11,Q1_M11,Q2_M11,T1_M11,T2_M11,T3_M11,T4_M11,T5_M11,U1_M11,ZSPAN_M11,X2_M11,X0_M11,X1_M11
2024-02-20 05:00:00,SystemResetWarning,0828.0,5.00,000.00,023.5,022.8,000.0,032.1,025.4,10.8,0000.0,0003.33,0010.17,0002.60
2024-02-20 05:01:00,SystemResetWarning,0827.9,5.00,000.00,023.5,022.8,000.0,032.1,025.4,10.7,0000.0,0003.26,0010.56,0002.52
2024-02-20 05:02:00,SystemResetWarning,0827.8,5.00,000.00,023.5,022.8,000.0,032.1,025.4,10.7,0000.0,0003.24,0009.87,0002.47
2024-02-20 05:03:00,SystemResetWarning,0827.8,5.00,000.00,023.5,022.8,000.0,032.1,025.4,10.7,0000.0,0003.19,0009.72,0002.42
2024-02-20 05:04:00,SystemResetWarning,0827.8,5.00,000.00,023.5,022.8,000.0,032.0,025.3,10.7,0000.0,0003.08,0009.13,0002.34
2024-02-20 05:05:00,SystemResetWarning,0827.8,5.00,000.00,023.5,022.8,000.0,032.0,025.3,10.5,0000.0,0003.02,0008.98,0002.26
2024-02-20 05:06:00,SystemResetWarning,0827.8,5.00,000.00,023.5,022.8,000.0,032.0,025.3,10.3,0000.0,0002.93,0008.29,0002.19
2024-02-20 05:07:00,SystemResetWarning,0827.7,5.00,000.00,023.5,022.8,000.0,032.0,025.3,10.1,0000.0,0002.80,0007.76,0002.11
2024-02-20 05:08:00,SystemResetWarning,0827.7,5.00,000.00,023.5,022.8,000.0,032.0,025.3,10.2,0000.0,0002.72,0006.97,0002.03
2024-02-20 05:09:00,SystemResetWarning,0827.8,5.00,000.00,023.5,022.8,000.0,032.0,025.3,10.2,0000.0,0002.65,0006.75,0001.96
2024-02-20 05:10:00,SystemResetWarning,0827.8,5.00,000.00,023.5,022.7,000.0,032.0,025.3,10.1,0000.0,0002.54,0006.79,0001.88
2024-02-20 05:11:00,SystemResetWarning,0827.8,5.00,000.00,023.5,022.8,000.0,032.0,025.3,10.2,0000.0,0002.53,0007.61,0001.85
2024-02-20 05:12:00,SystemResetWarning,0827.7,5.00,000.00,023.5,022.8,000.0,032.0,025.3,10.3,0000.0,0002.48,0006.99,0001.80
2024-02-20 05:13:00,SystemResetWarning,0827.7,5.00,000.00,023.4,022.8,000.0,032.0,025.3,10.4,0000.0,0002.40,0006.67,0001.74
2024-02-20 05:14:00,SystemResetWarning,0827.7,5.00,000.00,023.4,022.8,000.0,032.0,025.3,10.4,0000.0,0002.27,0006.45,0001.65
2024-02-20 05:15:00,SystemResetWarning,0827.7,5.00,000.00,023.4,022.8,000.0,032.0,025.3,10.5,0000.0,0002.24,0005.89,0001.60
2024-02-20 05:16:00,SystemResetWarning,0827.7,5.00,000.00,023.4,022.8,000.0,032.0,025.3,10.5,0000.0,0002.18,0005.72,0001.57
2024-02-20 05:17:00,SystemResetWarning,0827.7,5.01,000.00,023.4,022.8,000.0,032.0,025.3,10.6,0000.0,0002.14,0005.51,0001.53
2024-02-20 05:18:00,SystemResetWarning,0827.7,5.01,000.00,023.4,022.7,000.0,032.0,025.3,10.7,0000.0,0002.08,0005.50,0001.49
2024-02-20 05:19:00,SystemResetWarning,0827.7,5.01,000.00,023.4,022.7,000.0,032.0,025.3,10.8,0000.0,0002.05,0006.36,0001.46
2024-02-20 05:20:00,SystemResetWarning,0827.7,5.00,000.00,023.4,022.7,000.0,032.0,025.3,11.0,0000.0,0001.97,0006.28,0001.42
2024-02-20 05:21:00,SystemResetWarning,0827.7,5.00,000.00,023.4,022.7,000.0,032.0,025.3,11.1,0000.0,0001.97,0007.24,0001.41
2024-02-20 05:22:00,SystemResetWarning,0827.7,4.99,000.00,023.4,022.7,000.0,032.0,025.3,11.6,0000.0,0001.97,0007.25,0001.41
2024-02-20 05:23:00,SystemResetWarning,0827.7,4.99,000.00,023.4,022.7,000.0,031.9,025.3,11.9,0000.0,0001.97,0006.96,0001.41
2024-02-20 05:24:00,SystemResetWarning,0827.7,5.00,000.00,023.4,022.7,000.0,031.9,025.2,11.8,0000.0,0001.99,0007.35,0001.40
2024-02-20 05:25:00,SystemResetWarning,0827.7,5.00,000.00,023.4,022.7,000.0,031.9,025.2,11.7,0000.0,0002.01,0007.61,0001.41
2024-02-20 05:26:00,SystemResetWarning,0827.8,5.00,000.00,023.4,022.7,000.0,031.9,025.2,11.8,0000.0,0002.03,0007.65,0001.43
2024-02-20 05:27:00,SystemResetWarning,0827.7,5.00,000.00,023.3,022.6,000.0,031.9,025.1,11.8,0000.0,0002.04,0008.15,0001.47
2024-02-20 05:28:00,SystemResetWarning,0827.6,5.00,000.00,023.3,022.6,000.0,031.9,025.1,11.9,0000.0,0002.10,0008.77,0001.54
2024-02-20 05:29:00,SystemResetWarning,0827.7,5.00,000.00,023.3,022.6,000.0,031.9,025.1,11.9,0000.0,0002.16,0008.84,0001.60
2024-02-20 05:30:00,SystemResetWarning,0827.6,5.00,000.00,023.3,022.6,000.0,031.9,025.0,11.6,0000.0,0002.22,0008.37,0001.66
2024-02-20 05:31:00,SystemResetWarning,0827.8,5.01,000.00,023.3,022.6,000.0,031.9,025.0,11.8,0000.0,0002.36,0008.47,0001.75
2024-02-20 05:32:00,SystemResetWarning,0827.7,5.00,000.00,023.3,022.6,000.0,031.9,025.1,11.9,0000.0,0002.45,0007.90,0001.84
2024-02-20 05:33:00,SystemResetWarning,0827.8,5.01,000.00,023.2,022.5,000.0,031.9,025.1,12.2,0000.0,0002.48,0007.57,0001.88
2024-02-20 05:34:00,SystemResetWarning,0827.7,5.00,000.00,023.2,022.5,000.0,031.8,025.0,12.2,0000.0,0002.51,0007.23,0001.91
2024-02-20 05:35:00,SystemResetWarning,0827.7,5.00,000.00,023.2,022.5,000.0,031.8,025.0,12.0,0000.0,0002.56,0007.61,0001.96
2024-02-20 05:36:00,SystemResetWarning,0827.8,5.00,000.00,023.2,022.4,000.0,031.8,024.9,11.9,0000.0,0002.67,0008.42,0002.02
2024-02-20 05:37:00,SystemResetWarning,0827.8,5.00,000.00,023.2,022.4,000.0,031.8,024.9,11.9,0000.0,0002.81,0008.51,0002.11
2024-02-20 05:38:00,SystemResetWarning,0827.9,4.99,000.00,023.1,022.4,000.0,031.8,024.9,12.4,0000.0,0002.92,0008.66,0002.17
2024-02-20 05:39:00,SystemResetWarning,0827.9,4.99,000.00,023.1,022.3,000.0,031.8,024.9,12.6,0000.0,0002.97,0008.25,0002.21
2024-02-20 05:40:00,SystemResetWarning,0827.8,5.01,000.00,023.1,022.3,000.0,031.7,024.9,12.7,0000.0,0003.03,0008.66,0002.25
2024-02-20 05:41:00,SystemResetWarning,0827.8,5.01,000.00,023.1,022.3,000.0,031.7,024.9,12.7,0000.0,0003.08,0009.43,0002.30
2024-02-20 05:42:00,SystemResetWarning,0827.8,5.00,000.00,023.1,022.3,000.0,031.7,024.9,12.6,0000.0,0003.10,0010.43,0002.29
2024-02-20 05:43:00,SystemResetWarning,0827.8,5.01,000.00,023.0,022.3,000.0,031.7,024.9,12.6,0000.0,0003.10,0011.04,0002.27
2024-02-20 05:44:00,SystemResetWarning,0827.8,4.99,000.00,023.0,022.3,000.0,031.7,024.8,12.6,0000.0,0003.12,0011.70,0002.28
2024-02-20 05:45:00,SystemResetWarning,0827.8,5.00,000.00,023.0,022.3,000.0,031.7,024.8,12.6,0000.0,0003.14,0011.78,0002.31
2024-02-20 05:46:00,SystemResetWarning,0827.7,4.99,000.00,023.0,022.3,000.0,031.6,024.8,12.6,0000.0,0003.15,0011.43,0002.35
2024-02-20 05:47:00,SystemResetWarning,0827.6,5.00,000.00,023.0,022.3,000.0,031.6,024.8,12.2,0000.0,0003.15,0011.64,0002.36
2024-02-20 05:48:00,SystemResetWarning,0827.7,5.00,000.00,023.0,022.3,000.0,031.6,024.8,12.2,0000.0,0003.11,0011.80,0002.34
2024-02-20 05:49:00,SystemResetWarning,0827.6,5.01,000.00,022.9,022.3,000.0,031.6,024.8,12.3,0000.0,0003.09,0012.26,0002.32
2024-02-20 05:50:00,SystemResetWarning,0827.7,5.00,000.00,022.9,022.2,000.0,031.6,024.8,12.2,0000.0,0003.10,0012.49,0002.32
2024-02-20 05:51:00,SystemResetWarning,0827.7,5.00,000.00,022.9,022.2,000.0,031.6,024.8,12.4,0000.0,0003.08,0013.55,0002.31
2024-02-20 05:52:00,SystemResetWarning,0827.7,4.99,000.00,022.9,022.3,000.0,031.6,024.8,12.4,0000.0,0003.11,0012.86,0002.29
2024-02-20 05:53:00,SystemResetWarning,0827.7,4.98,000.00,022.9,022.3,000.0,031.6,024.8,12.5,0000.0,0003.17,0012.33,0002.30
2024-02-20 05:54:00,SystemResetWarning,0827.6,5.00,000.00,022.9,022.3,000.0,031.6,024.8,12.5,0000.0,0003.17,0011.66,0002.32
2024-02-20 05:55:00,SystemResetWarning,0827.7,5.01,000.00,022.9,022.3,000.0,031.5,024.8,12.5,0000.0,0003.20,0011.00,0002.36
2024-02-20 05:56:00,SystemResetWarning,0827.7,5.01,000.00,022.9,022.3,000.0,031.5,024.8,12.5,0000.0,0003.22,0010.94,0002.36
2024-02-20 05:57:00,SystemResetWarning,0827.8,4.99,000.00,022.9,022.3,000.0,031.5,024.8,12.5,0000.0,0003.24,0011.69,0002.35
2024-02-20 05:58:00,SystemResetWarning,0827.5,4.99,000.00,022.9,022.3,000.0,031.5,024.8,12.6,0000.0,0003.24,0011.30,0002.35
2024-02-20 05:59:00,SystemResetWarning,0827.6,5.00,000.00,022.9,022.3,000.0,031.5,024.8,12.6,0000.0,0003.24,0011.12,0002.34
